• Processing (Info)

  • MPEC 2013-L34 : 2013 LD7

    The following Minor Planet Electronic Circular may be linked-to from your own Web pages, but must not otherwise be redistributed electronically.

    A form allowing access to any MPEC is at the bottom of this page.


    Read MPEC 2013-L33 Read MPEC 2013-L35


    M.P.E.C. 2013-L34                                Issued 2013 June 7, 20:26 UT
    
         The Minor Planet Electronic Circulars contain information on unusual
             minor planets and routine data on comets.  They are published
       on behalf of Commission 20 of the International Astronomical Union by the
              Minor Planet Center, Smithsonian Astrophysical Observatory,
                              Cambridge, MA 02138, U.S.A.
    
                 Prepared using the Tamkin Foundation Computer Network
    
                                  MPC@CFA.HARVARD.EDU
                URL https://www.minorplanetcenter.net/    ISSN 1523-6714
    
                                       2013 LD7
    
    Observations:
         K13L07D* C2013 06 06.24798 15 17 58.63 +03 59 23.9          21.8 VuEL034G96
         K13L07D  C2013 06 06.25484 15 18 00.57 +03 59 53.2          20.8 VuEL034G96
         K13L07D  C2013 06 06.26185 15 18 02.55 +04 00 23.5          22.0 VuEL034G96
         K13L07D  C2013 06 06.26914 15 18 04.64 +04 00 54.5          21.7 VuEL034G96
         K13L07D  C2013 06 06.30748 15 18 15.62 +04 03 40.5          21.9 VuEL034G96
         K13L07D  C2013 06 06.30838 15 18 15.80 +04 03 43.7          21.5 VuEL034G96
         K13L07D  C2013 06 06.30928 15 18 16.12 +04 03 47.9          21.9 VuEL034G96
         K13L07D  C2013 06 06.31020 15 18 16.38 +04 03 51.1          21.8 VuEL034G96
         K13L07D  C2013 06 06.31110 15 18 16.63 +04 03 55.4          21.4 VuEL034G96
         K13L07D  C2013 06 07.18362 15 22 48.36 +05 02 54.2          20.9 VuEL034G96
         K13L07D  C2013 06 07.18446 15 22 48.64 +05 02 56.5          21.2 VuEL034G96
         K13L07D  C2013 06 07.18528 15 22 48.82 +05 03 00.0          21.4 VuEL034G96
         K13L07D  C2013 06 07.18610 15 22 49.04 +05 03 03.2          21.4 VuEL034G96
         K13L07D  C2013 06 07.18692 15 22 49.26 +05 03 06.5          20.8 VuEL034G96
    
    Observer details:
    G96 Mt. Lemmon Survey.  Observer A. Boattini.  Measurers A. Boattini,
        E. J. Christensen, A. R. Gibbs, A. D. Grauer, R. E. Hill, J. A. Johnson,
        R. A. Kowalski, S. M. Larson, R. H. McNaught, F. C. Shelly.  1.5-m
        reflector + CCD.
    
    Orbital elements:
    2013 LD7                                                 Earth MOID = 0.0310 AU
    Epoch 2013 Apr. 18.0 TT = JDT 2456400.5                 MPC
    M  18.59166              (2000.0)            P               Q
    n   0.76815719     Peri.  285.65356     -0.96822091     -0.14105466
    a   1.1807809      Node   246.60495     +0.20078063     -0.93075040
    e   0.2282511      Incl.   13.00421     -0.14911542     -0.33735333
    P   1.28           H   25.3           G   0.15           U   9
    Residuals in seconds of arc
    130606 G96  0.2+  0.4+    130606 G96  0.7-  0.1-    130607 G96  0.4+  0.4-
    130606 G96  0.0   0.0     130606 G96  0.2+  0.3+    130607 G96  0.1-  0.1-
    130606 G96  0.2-  0.1-    130606 G96  0.1+  0.5-    130607 G96  0.0   0.0
    130606 G96  0.0   0.5-    130606 G96  0.0   0.0     130607 G96  0.2+  0.1+
    130606 G96  0.4+  0.6+    130607 G96  0.5-  0.5+
    
    Ephemeris:
    2013 LD7                 a,e,i = 1.18, 0.23, 13                  q = 0.9113
    Date    TT    R. A. (2000) Decl.     Delta      r     Elong.  Phase     V
    2013 05 08    06 12 58.7 -37 50 49   0.09324 0.9832    71.2   103.7    23.9
    ...
    2013 05 23    11 19 13.8 -39 49 24   0.03926 1.0315   118.1    60.0    20.5
    ...
    2013 05 31    14 27 30.6 -08 00 32   0.05416 1.0597   147.1    31.3    20.4
    ...
    2013 06 06    15 16 37.6 +03 41 58   0.08107 1.0815   144.2    33.3    21.4
    2013 06 07    15 21 52.0 +04 51 48   0.08607 1.0852   143.4    33.9    21.6
    2013 06 08    15 26 35.5 +05 52 51   0.09115 1.0889   142.7    34.4    21.7
    ...
    2013 06 14    15 47 36.1 +09 50 21   0.1232  1.1111   138.6    37.2    22.5
    ...
    2013 06 22    16 05 15.9 +11 55 59   0.1686  1.1407   134.5    39.5    23.3
    ...
    2013 07 07    16 27 35.9 +11 53 20   0.2598  1.1954   128.3    41.8    24.4
    
    A. U. Tomatic                (C) Copyright 2013 MPC           M.P.E.C. 2013-L34
    

    Read MPEC 2013-L33 Read MPEC 2013-L35


    MPEC number:

    Enter an MPEC number in one of the following forms:

    • 1997-B01 (the full form)
    • J97B01 (the packed version of the full form)
    • B01 (the abbreviated form)